STARLINK-32762 (62748 NORAD) Tracking and Keplerian Element Data

This shows tracking and keplerian element data for the satellite.

Feedback or suggestion? Click here.




ElementValue
Catalog62748
NameSTARLINK-32762
Epoch Orbit221
Epoch Day35.25001157
Epoch Year2025
RAAN253.8321
Inclination42.9998
Eccentricity0.0001773
Argument of Perigee278.6418
Mean Anonmoly103.9815
Mean Motion15.64330034
Decay Rate-0.01466696
L11 62748U 25014P 25035.25001157 -.01466696 00000+0 -16641-1 0 9993
L22 62748 42.9998 253.8321 0001773 278.6418 103.9815 15.64330034 2219



Live tracking and technical data element details for STARLINK-32762 (NORAD 62748). STARLINK-32762 can be tracked NOW for your location showing map with azimuth and elevation plus other details from your city location.







IsCatalogInMostPopularTable: catalog: 62748, numindb: 213
Update: records affected: 1



GetName: 62748 STARLINK-32762

Hit Count: updated at: Sat, 06 Dec 2025 12:38:46 GMT